Regional Weather Roundup
Issued by NWS

Home | Current Version | Previous Version | Graphics & Text | Print | Product List | Glossary On
Versions: 1 2 3 4 5 6 7 8 9 10 11 12 13 14 15 16 17 18 19 20 21 22 23 24 25 26 27 28
000
ASUS45 KBOU 270307
RWRCO

WEATHER ROUNDUP FOR COLORADO
NATIONAL WEATHER SERVICE DENVER/BOULDER CO
900 PM MDT WED APR 26 2017

NOTE: "FAIR" INDICATES FEW OR NO CLOUDS BELOW 12000 FEET WITH NO
SIGNIFICANT WEATHER AND/OR OBSTRUCTIONS TO VISIBILITY.

COZ001>005-013-030-031-270400-
...NORTHWEST COLORADO...

CITY           SKY/WX    TMP DP  RH WIND       PRES   REMARKS
CRAIG          CLOUDY    45  32  60 W6        29.74S
HAYDEN         FAIR      39  30  70 E9        29.75F
MEEKER         LGT RAIN  43  36  76 MISG      29.76S
MOUNT WERNER   NOT AVBL
STEAMBOAT SPGS CLOUDY    37  33  89 NE5       29.77R
WALDEN           N/A     34  28  80 W14       29.79R WCI  24
$$

COZ006>008-011-270400-
...WEST CENTRAL VALLEYS...

CITY           SKY/WX    TMP DP  RH WIND       PRES   REMARKS
GRAND JUNCTION CLOUDY    55  28  35 W22G32    29.74R
MONTROSE       CLOUDY    52  26  36 W7        29.79R
EAGLE          CLOUDY    44  31  60 E5        29.80F
RIFLE          CLOUDY    47  35  63 CALM      29.77S
DELTA          CLOUDY    58  21  23 W9G18     29.77R
NUCLA          CLOUDY    54  23  30 SE13      29.82R
$$

COZ017>023-064>068-270400-
...SOUTHWEST COLORADO...

CITY           SKY/WX    TMP DP  RH WIND       PRES   REMARKS
DURANGO        CLOUDY    51  18  27 W28G39    29.81R
CORTEZ         CLOUDY    54  26  34 SW13      29.81R
PAGOSA SPRINGS MOCLDY    47  17  30 SW8       29.84R
TELLURIDE      CLOUDY    39  23  51 CALM      29.89S
WOLF CREEK PAS MOCLDY    23  19  86 S21G28    29.97S WCI   8
$$

COZ009-010-012-014-032>034-037-058>063-270400-
...CENTRAL COLORADO...

CITY           SKY/WX    TMP DP  RH WIND       PRES   REMARKS
ASPEN          MOCLDY    37  30  75 SE7       29.81F
BUENA VISTA    FAIR      41  16  36 CALM      29.79R
COPPER MTN     LGT SNOW  25  19  80 MISG      29.87S
BERTHOUD PASS  CLOUDY    18   5  57 NW26G36   29.82R WCI  -1
COTTONWOOD PAS CLOUDY    36  19  51 NW3       29.83R
GUNNISON       FAIR      40  24  53 W5        29.82R
KREMMLING      CLOUDY    41  36  81 N3        29.81R
LEADVILLE      FAIR      30  20  66 N7        29.83S WCI  23
MONARCH PASS   FAIR      23  18  80 W32       29.96R WCI   5
SALIDA         FAIR      45  20  37 SW10      29.85S
SUNLIGHT       CLOUDY    27  21  80 SW9G18    29.91S WCI  17
WILKERSON PASS MOCLDY    28  14  54 NW8       29.89R WCI  20
$$

COZ069>075-270400-
...SAN LUIS VALLEY/SANGRE DE CRISTO MOUNTAINS...

CITY           SKY/WX    TMP DP  RH WIND       PRES   REMARKS
ALAMOSA        FAIR      43  24  47 W8        29.79R
LA VETA PASS   CLOUDY    32  27  80 SW15G25   29.95R WCI  22
SAGUACHE       FAIR      41  21  45 W3        29.82R
$$

COZ035-036-038>040-270400-
...NORTHERN COLORADO FRONT RANGE...

CITY           SKY/WX    TMP DP  RH WIND       PRES   REMARKS
DENVER INTL AP MOCLDY    43  31  62 E12       29.70R
DMNS CITY PARK   N/A     50  31  48 E6G14     29.71R
AURORA         MOCLDY    45  30  54 S7        29.72R
FRONT RANGE AP MOCLDY    46  34  61 SE7       29.73R
ERIE MUNI ARPT MOCLDY    49  29  45 W9        29.71R
BOULDER MUN AP CLOUDY    50  30  46 W8        29.71R
CENTENNIAL     FAIR      46  33  60 S10       29.72R
BROOMFIELD     NOT AVBL
FORT COLLINS   LGT RAIN  48  37  65 E8        29.72R
LONGMONT       CLOUDY    52  31  44 W8        29.72R
$$

COZ041-046-047-076>085-087-088-270400-
...PIKES PEAK/PALMER DIVIDE AND SOUTHERN FOOTHILLS...

CITY           SKY/WX    TMP DP  RH WIND       PRES   REMARKS
COLO. SPRINGS  MOCLDY    45  34  65 E10       29.76R
A. F. ACADEMY  MOCLDY    39  32  75 N7        29.75R
SCHRIEVER AFB  FAIR      42  34  74 NE7       29.76R
ELLICOTT       FAIR     N/A N/A N/A E8        29.75R
FALCON         FAIR      37  33  85 NE5       29.78R
FORT CARSON    CLOUDY    47  33  56 W3        29.75R
LIMON          CLOUDY    45  35  68 W8        29.74R
MONUMENT HILL  FAIR      32  32 100 S7        29.79R WCI  26
TRINIDAD       CLOUDY    47  37  68 SE15      29.74R
$$

COZ042>045-048>051-090-091-270400-
...NORTHEAST COLORADO...

CITY           SKY/WX    TMP DP  RH WIND       PRES   REMARKS
GREELEY ARPT   CLOUDY    47  38  71 E8        29.73R
AKRON          CLOUDY    45  34  65 N8        29.72R
BURLINGTON     NOT AVBL
WRAY           NOT AVBL
STERLING       MOCLDY    45  41  87 CALM      29.69S
HOLYOKE        FAIR      46  37  71 N7        29.71R
FORT MORGAN    MOCLDY    43  36  76 E5        29.72S
$$

COZ086-089-092>099-270400-
...SOUTHEAST COLORADO...

CITY           SKY/WX    TMP DP  RH WIND       PRES   REMARKS
PUEBLO         FAIR      50  36  58 S9        29.73R
LA JUNTA       CLOUDY    54  36  50 S9        29.72R
LAMAR          LGT RAIN  52  35  52 S7        29.71R
SPRINGFIELD      N/A     44  35  70 SW8       29.76R
$$




USA.gov is the U.S. government's official web portal to all federal, state and local government web resources and services.